Flag for Germany Weather past 2 weeks in Nürburg, Rhineland-Palatinate, Germany

Now
37 °F

Overcast.


Feels Like: 34 °F
Forecast: 31 / 36 °F
Wind: 5 mph from West

Location: Nuerburg-Barweiler

Current Time: Dec 25, 2014 at 2:46:07 PM

Latest Report: Dec 25, 2014 at 2:00 PM


Visibility: 16 mi

Pressure: 30.29 "Hg

Humidity: 88%

Dew point: 34 °F

Location of NürburgLocation

Historic Weather in Nürburg — Graph

°F

Nürburg temperature yesterday

Maximum temperature yesterday: 44 °F (at 8:00 PM)
Minimum temperature yesterday: 39 °F (at 11:00 PM)
Average temperature yesterday: 41 °F

Past Weeks' High & Low Weather Summary

 TemperatureHumidityPressure
High51 °F (Dec 18, 6:00 PM)100% (Dec 13, 11:00 PM)30.47 "Hg (Dec 13, 11:00 PM)
Low28 °F (Dec 15, 6:00 AM)79% (Dec 25, 1:00 AM)29.47 "Hg (Dec 12, 5:00 PM)
Average39 °F93%30.03 "Hg
* Reported Dec 10 2:00 PM — Dec 25 2:00 PM, Nürburg, Weather by CustomWeather, © 2014

Note: Actual official high and low records may vary slightly from our data, if they occured in-between our weather recording intervals... More about our weather records

Advertising

Nürburg weather history for previous 24 hours

 ConditionsComfort  
Time TempWeatherWind HumidityBarometerVisibility
2:00 PM
Dec 25
37 °FOvercast.5 mph88%30.29 "Hg16 mi
1:00 PM38 °FOvercast.6 mph85%30.29 "Hg15 mi
12:00 PM37 °FOvercast.6 mph86%30.29 "Hg17 mi
11:00 AM36 °FOvercast.6 mph88%30.29 "Hg16 mi
9:00 AM35 °FOvercast.6 mph87%30.27 "Hg17 mi
8:00 AM35 °FOvercast.5 mph87%30.25 "Hg17 mi
7:00 AM34 °FOvercast.5 mph90%30.25 "Hg22 mi
6:00 AM35 °FPassing clouds.5 mph89%30.23 "Hg22 mi
5:00 AM35 °FOvercast.5 mph88%30.23 "Hg19 mi
3:00 AM36 °FOvercast.5 mph84%30.22 "Hg31 mi
2:00 AM36 °FOvercast.5 mph79%30.21 "Hg34 mi
1:00 AM37 °FOvercast.8 mph79%30.21 "Hg31 mi
12:00 AM38 °FOvercast.6 mph90%30.18 "Hg22 mi
11:00 PM
Dec 24
39 °FOvercast.6 mph90%30.16 "Hg25 mi
9:00 PM44 °FRain. Low clouds.7 mph97%30.09 "Hg4 mi
8:00 PM44 °FDrizzle. Low clouds.7 mph97%30.06 "Hg9 mi
7:00 PM44 °FLight rain. Low clouds.7 mph97%30.06 "Hg4 mi
6:00 PM43 °FLow clouds.7 mph97%30.05 "Hg3 mi
5:00 PM43 °FRain. Low clouds.7 mph97%30.05 "Hg3 mi
3:00 PM43 °FRain. Low clouds.7 mph97%30.05 "Hg3 mi
2:00 PM43 °FRain. Low clouds.8 mph96%30.06 "Hg4 mi
Weather by CustomWeather, © 2014

See weather overviewHow to use our weather pages